www.pogodaiklimat.ru

Погода и климат >> Архив погоды >> Индия >> New Delhi


АРХИВ ПОГОДЫ в New Delhi

Время (UTC), дата Ветер
(напр.,м/с)
 
Видим.   Явления Облачность Т
(С)
Тd
(С)
f
(%)
Тe
(С)
Тes
(С)
Комфортность P
(гПа)
Po
(гПа)
Тmin
(С)
Tmax
(С)
R
(мм)
R24
(мм)
S
(см)
12 19.09 СЗ 2 4000 м мгла ясно +33.2 +21.4 50 +41 +42 опасность
перегрева
1002.4 1002.0 +35.4
15 19.09 штиль 0 4000 м мгла ясно +29.0 +22.2 67 +38 +38 очень
душно
1003.5 1004.0
18 19.09 штиль 0 4000 м дымка ясно +26.4 +22.6 80 +35 +35 очень
душно
1004.2 1004.0
21 19.09 штиль 0 4000 м дымка ясно +25.6 +22.3 82 +33 +33 очень
душно
1004.9 1005.0
00 20.09 штиль 0 4000 м дымка ясно +25.0 +22.6 87 +33 +33 очень
душно
1004.7 1005.0
03 20.09 штиль 0 2000 м дымка ясно +27.2 +23.1 78 +36 +43 очень
душно
1005.9 1006.0 +24.0 +35.4
06 20.09 З 1 2000 м мгла ясно +33.2 +22.4 53 +42 +61 опасность
перегрева
1005.8 1006.0
09 20.09 З 2 4000 м мгла 5/3 1200 м
[Sc Ac trans]
+35.4 +22.4 47 +44 +51 опасность
перегрева
1003.9 1004.0
12 20.09 В 1 4000 м мгла 5/3 1200 м
[Sc Ac trans]
+34.2 +22.9 52 +44 +45 опасность
перегрева
1003.3 1003.0 +35.7
15 20.09 штиль 0 2000 м мгла 1/0
[Ac trans]
+29.6 +23.5 70 +40 +40 очень
душно
1005.2 1005.0
18 20.09 В 2 2000 м дымка 3/0
[Ac trans]
+28.2 +23.6 76 +38 +38 очень
душно
1006.6 1007.0
21 20.09 штиль 0 2000 м дымка 3/0
[Ac trans]
+27.4 +23.6 80 +37 +37 очень
душно
1006.0 1006.0
00 21.09 штиль 0 2000 м дымка 4/0
[Ac trans]
+26.4 +23.2 83 +36 +36 очень
душно
1006.7 1007.0
03 21.09 В 2 2000 м дымка 3/0
[Ac trans]
+28.2 +24.2 79 +39 +43 очень
душно
1008.0 1008.0 +25.8 +35.7
06 21.09 В 4 2000 м мгла 5/3 1200 м
[Sc Ac trans]
+32.8 +27.2 72 +51 +57 опасность
перегрева
1008.7 1009.0
09 21.09 В 3 4000 м слабый дождь 9/5 900 м
[Cb calv Ac trans]
+33.0 +23.5 58 +44 +47 опасность
перегрева
1007.0 1007.0 0.0
12 21.09 В 2 4000 м мгла {дождь} 9/5 900 м
[Cb calv Ac trans]
+29.8 +20.8 59 +37 +37 очень
душно
1006.8 1007.0 +34.0 0.0
15 21.09 В 2 2000 м мгла 9/5 900 м
[Sc Ac trans]
+28.2 +22.3 70 +37 +37 очень
душно
1007.8 1008.0 0.0
18 21.09 СВ 4 2000 м дождь {гроза} 10/6 600 м
[Cb calv As op]
+24.2 +23.3 95 +32 +32 очень
душно
1009.7 1010.0 4
21 21.09 СВ 3 2000 м дождь {гроза} 10/6 600 м
[Cb calv As op]
+23.8 +23.5 98 +32 +32 очень
душно
1009.1 1009.0 21
00 22.09 СВ 2 2000 м слабый дождь {гроза} 10/6 600 м
[Cb calv As op]
+23.6 +23.6 100 +32 +32 очень
душно
1007.7 1008.0 26
03 22.09 СВ 2 2000 м дымка {гроза, дождь} 9/5 900 м
[Sc Ac trans]
+24.8 +23.3 91 +33 +34 очень
душно
1008.7 1009.0 +22.2 +34.0 27
06 22.09 В 5 2000 м слабый дождь 10/6 750 м
[Cb calv As op]
+26.0 +24.6 92 +37 +37 очень
душно
1009.3 1009.0 0.4
09 22.09 В 3 2000 м 10/6 450 м
[Cb calv As op]
+26.0 +24.6 92 +37 +37 очень
душно
1007.2 1007.0 2
12 22.09 В 4 2000 м дымка {дождь} 9/5 900 м
[Sc Ac trans]
+27.4 +24.5 84 +39 +39 очень
душно
1006.2 1006.0 +27.6 2
15 22.09 В 2 2000 м дымка {дождь} 9/5 900 м
[Sc Ac trans]
+26.4 +23.8 86 +36 +36 очень
душно
1008.0 1008.0 2
18 22.09 В 2 2000 м дымка {дождь} 8/4 900 м
[Sc Ac trans]
+26.2 +24.6 91 +37 +37 очень
душно
1008.8 1009.0 2
21 22.09 В 4 2000 м дымка {дождь} 8/4 900 м
[Sc Ac trans]
+26.0 +24.6 92 +37 +37 очень
душно
1007.8 1008.0 2
00 23.09 В 6 2000 м дымка 8/4 900 м
[Sc Ac trans]
+25.6 +23.9 90 +35 +35 очень
душно
1008.1 1008.0 2
03 23.09 В 4 2000 м 9/4 900 м
[Cb calv Ac trans]
+26.6 +24.3 87 +37 +38 очень
душно
1009.0 1009.0 +25.0 +27.6 2
06 23.09 В 4 2000 м дымка 8/4 1200 м
[Cb calv Ac trans]
+27.8 +24.6 83 +39 +43 очень
душно
1008.9 1009.0
09 23.09 В 3 2000 м слабый дождь 10/6 750 м
[Cb calv As op]
+30.2 +24.5 72 +43 +44 опасность
перегрева
1006.4 1006.0 0.4
12 23.09 В 4 2000 м мгла {дождь} 9/5 750 м
[Cb calv Ac trans]
+29.8 +24.7 74 +42 +42 опасность
перегрева
1005.9 1006.0 +31.2 0.5
15 23.09 В 4 2000 м слабый дождь {гроза} 10/5 600 м
[Cb calv As op]
+26.0 +26.0 100 +39 +39 очень
душно
1007.1 1007.0 7
18 23.09 ЮВ 7 2000 м слабый дождь {гроза} 10/6 600 м
[Cb calv As op]
+25.2 +25.2 100 +36 +36 очень
душно
1007.6 1008.0 8
21 23.09 штиль 0 50 км слабый дождь {гроза} ?/? +24.8 +24.8 100 +35 +35 очень
душно
1005.9 1006.0 9
00 24.09 В 3 1000 м слабый дождь {гроза} 10/6 600 м
[Cb calv As op]
+24.4 +23.8 96 +33 +33 очень
душно
1004.9 1005.0 16
03 24.09 В 3 2000 м дымка {дождь} 10/6 750 м
[Cb calv As op]
+25.0 +23.5 91 +34 +34 очень
душно
1007.0 1007.0 +24.0 +31.2 16
06 24.09 В 2 2000 м слабый дождь 10/6 600 м
[Sc As op]
+26.0 +24.6 92 +37 +38 очень
душно
1007.1 1007.0 4
12 24.09 З 1 2000 м дымка {дождь} 9/5 900 м
[Cb calv Ac trans]
+26.8 +24.8 89 +38 +38 очень
душно
1004.4 1004.0 +27.8 9
15 24.09 ЮЗ 4 2000 м дымка {дождь} 9/5 900 м
[Sc Ac trans]
+25.2 +23.7 91 +34 +34 очень
душно
1006.5 1007.0 12
18 24.09 З 4 2000 м слабый дождь 10/6 750 м
[Cb calv As op]
+23.6 +23.0 96 +31 +31 очень
душно
1007.2 1007.0 12
21 24.09 З 4 2000 м слабый дождь 10/6 750 м
[Cb calv As op]
+23.0 +22.7 98 +32 +32 очень
душно
1005.8 1006.0 13
00 25.09 З 3 2000 м дымка {дождь} 9/5 900 м
[Sc Ac trans]
+23.0 +22.1 95 +31 +31 очень
душно
1006.6 1007.0 13
03 25.09 З 2 2000 м дымка {дождь} 10/5 600 м
[Sc Ac trans]
+23.0 +22.1 95 +31 +32 очень
душно
1008.9 1009.0 +22.0 +27.8 13
06 25.09 З 3 1000 м слабая морось 10/6 750 м
[Sc As op]
+23.8 +22.0 90 +31 +32 очень
душно
1009.6 1010.0 0.2
09 25.09 З 2 1000 м 10/6 900 м
[Sc As op]
+25.2 +22.2 83 +33 +34 очень
душно
1007.5 1008.0 0.2
12 25.09 З 1 2000 м дымка 8/4 1050 м
[Sc Ac trans]
+26.6 +22.8 80 +35 +36 очень
душно
1005.7 1006.0 +27.3 0.2
15 25.09 штиль 0 2000 м дымка 3/0
[Ac trans]
+24.6 +22.8 90 +33 +33 очень
душно
1007.1 1007.0 0.2
18 25.09 штиль 0 2000 м дымка ясно +24.2 +23.0 93 +32 +32 очень
душно
1007.2 1007.0 0.2
21 25.09 штиль 0 2000 м дымка ясно +23.4 +22.5 95 +32 +32 очень
душно
1006.2 1006.0 0.2
00 26.09 штиль 0 2000 м дымка ясно +22.6 +22.3 98 +30 +30 очень
душно
1006.9 1007.0 0.2
03 26.09 З 2 2000 м дымка ясно +24.6 +22.8 90 +33 +37 очень
душно
1008.0 1008.0 +22.0 +27.3 0.2
06 26.09 З 4 4000 м мгла 3/0
[]
+30.0 +23.0 66 +40 +49 очень
душно
1008.5 1009.0

 

Местоположение метеостанции New Delhi (Delhi, Индия): широта 28.58 долгота 77.20 высота над уровнем моря 216 м.

В архиве по умолчанию представлена погода в New Delhi за последнюю неделю. Архивные данные за месяц целиком и за предыдущие месяцы, начиная с января 2011 года, Вы можете получить, выбрав интересующий диапазон дат из раскрывающегося списка и нажав кнопку "Ввод!".


*Определитесь, кто Вы:
робот инопланетянин человек

Внимание! Время в таблицах - всемирное. Для получения местного времени необходимо прибавить поправку, которая в New Delhi равна 5.5 ч.

Смотрите также архив погоды в соседних городах и на ближайших метеорологических станциях:

Погода в New Delhi Airport (Delhi, Индия) (8 км)
Погода в Ridge (Delhi, Индия) (10 км)
Погода в New Delhi Aya Nagar (Delhi, Индия) (13 км)
Погода в Rohtak (Haryana, Индия) (67 км)
Погода в Meerut (Uttar Pradesh, Индия) (70 км)
Погода в Karnal (Haryana, Индия) (126 км)
Погода в Hissar (Haryana, Индия) (157 км)
Погода в Pilani (Rajasthan, Индия) (161 км)
Погода в Najibabad (Uttar Pradesh, Индия) (163 км)
Погода в Agra (Uttar Pradesh, Индия) (176 км)

Пояснения к столбцам:

Ветер - указаны скорость ветра в м/с - средняя за 10 мин, порывы в срок и между сроками (в фигурных скобках) и направление, откуда дует ветер: С - северный, СВ - северо-восточный, В - восточный, ЮВ - юго-восточный, Ю - южный, ЮЗ - юго-западный, З - западный, СЗ - северо-западный.
Видимость - горизонтальная дальность видимости в метрах или километрах. При видимости от 1 до 10 км при отсутствии осадков обычно наблюдается дымка, при ухудшении видимости до 1 км и менее - туман. В сухую погоду видимость может ухудшаться дымом, пылью или мглою.
Явления - указаны атмосферные явления, наблюдавшиеся в срок или в последний час перед сроком; фигурными скобками обозначены явления, наблюдавшиеся между сроками (за 1-3 часа до срока); квадратными скобками обозначены град или гололедные отложения с указанием их диаметра в мм.
Облачность - указаны через наклонную черту общая и нижняя облачность в баллах и высота нижней границы облаков в метрах; квадратными скобками обозначены формы облаков: Ci - перистые, Cs - перисто-слоистые, Cc - перисто-кучевые, Ac - высококучевые, As - высокослоистые, Sc - слоисто-кучевые, Ns - слоисто-дождевые, Cu - кучевые, Cb - кучево-дождевые. Подробнее классификацию облаков см. в Атласе облаков (PDF).
T - Температура воздуха - температура, измеренная на высоте 2 м над землей.
Td - Температура точки росы - температура, при понижении до которой содержащийся в воздухе водяной пар достигнет насыщения.
f - Относительная влажность воздуха - влажноcть воздуха, измеренная на высоте 2 м над землей.
Te - Эффективная температура - температура, которую ощущает одетый по сезону человек в тени. Характеристика душности погоды. При расчете учитывается влияние влажности воздуха и скорости ветра на теплоощущения человека.
Tes - Эффективная температура на солнце - температура, которую ощущает человек, с поправкой на солнечный нагрев. Характеристика знойности погоды. Зависит от высоты солнца над горизонтом, облачности и скорости ветра. Ночью, в пасмурную погоду, а также при ветре 12 м/с и более поправка равна нулю.
P - Атмосферное давление - приведенное к уровню моря атмосферное давление.
Po - Атмосферное давление - измеренное на уровне метеостанции атмосферное давление.
Tmin - Минимальная температура - минимум температуры воздуха на высоте 2 м над землей.
Tmax - Максимальная температура - максимум температуры воздуха на высоте 2 м над землей.
R - Количество осадков - Количество выпавших осадков за период времени, мм. При наведении курсора мыши на число - период времени, за который выпало указанное количество осадков.
R24 - Количество осадков - Количество выпавших осадков за 24 часа, мм.
S - Снежный покров - Высота снежного покрова, см. При наведении курсора мыши на число - состояние снежного покрова и степень покрытия местности в баллах.